This demonstration page uses our WeatherBlox Daily Observations layout. Learn more.

Left ArrowRight Arrow

38.80484, -77.04692

Hourly Observations for December 6, 2020

Temp ( °F °C ) Dew Point ( °F °C ) Humidity (%) Winds ( mph kmh ) Pressure ( in mb ) Visibility ( mi km ) Precip ( " mm )
12:52 am 00:52 Cloudy 43 6.1 27 -2.8 53 53 NW 15 24 29.97 1015 10 16 N/A
1:52 am 01:52 Cloudy 42 5.6 25 -3.9 51 51 NW 14 22 29.97 1015 10 16 N/A
2:52 am 02:52 Cloudy 42 5.6 24 -4.4 49 49 WNW 14 22 29.98 1015 10 16 N/A
3:52 am 03:52 Cloudy 41 5 24 -4.4 51 51 NW 15 24 29.98 1015 10 16 N/A
4:52 am 04:52 Cloudy 40 4.4 24 -4.4 53 53 NW 13 20 29.99 1016 10 16 N/A
5:52 am 05:52 Cloudy 40 4.4 25 -3.9 55 55 NNW 13 20 29.97 1015 10 16 N/A
6:52 am 06:52 Mostly Cloudy 39 3.9 24 -4.4 55 55 NNW 13 20 29.97 1015 10 16 N/A
7:52 am 07:52 Cloudy 39 3.9 25 -3.9 57 57 NNW 10 17 30.00 1016 10 16 N/A
8:52 am 08:52 Cloudy 40 4.4 23 -5 51 51 NW 10 17 30.00 1016 10 16 N/A
9:52 am 09:52 Mostly Cloudy 41 5 23 -5 49 49 NW 15 24 30.01 1016 10 16 N/A
10:52 am 10:52 Partly Cloudy 42 5.6 24 -4.4 49 49 NW 18 30 29.99 1016 10 16 N/A
11:52 am 11:52 Mostly Sunny 45 7.2 25 -3.9 46 46 NW 16 26 29.96 1015 10 16 N/A
12:52 pm 12:52 Mostly Sunny 45 7.2 25 -3.9 46 46 NW 15 24 29.95 1014 10 16 N/A
1:52 pm 13:52 Mostly Sunny 46 7.8 25 -3.9 44 44 NNW 15 24 29.93 1014 10 16 N/A
2:52 pm 14:52 Mostly Sunny 46 7.8 24 -4.4 42 42 WNW 9 15 29.93 1014 10 16 N/A
3:52 pm 15:52 Mostly Sunny 44 6.7 24 -4.4 45 45 WNW 12 19 29.93 1014 10 16 N/A
4:52 pm 16:52 Mostly Clear 42 5.6 23 -5 47 47 NW 9 15 29.95 1014 10 16 N/A
5:52 pm 17:52 Clear 41 5 23 -5 49 49 NNW 13 20 29.96 1015 10 16 N/A
6:52 pm 18:52 Clear 39 3.9 23 -5 53 53 NNW 12 19 29.97 1015 10 16 N/A
7:52 pm 19:52 Clear 37 2.8 24 -4.4 59 59 NNW 13 20 29.98 1015 10 16 N/A
8:52 pm 20:52 Clear 36 2.2 23 -5 59 59 NNW 13 20 29.98 1015 10 16 N/A
9:52 pm 21:52 Clear 35 1.7 23 -5 61 61 NNW 12 19 29.97 1015 10 16 N/A
10:52 pm 22:52 Clear 35 1.7 23 -5 61 61 NNW 12 19 29.96 1015 10 16 N/A
11:52 pm 23:52 Cloudy 34 1.1 23 -5 64 64 NNW 8 13 29.96 1015 10 16 N/A

Powered by AerisWeather